Showing default

OPS 9317 (IDSCS 7), 2221

Orbit data source: Space-Track

OPS 9317 (IDSCS 7), 2221 is a payload satellite owned by USAF SSD (US) in GEO that was launched on Thu, 16 Jun 1966 UTC via a TITAN IIIC launch vehicle from the Air Force Eastern Test Range (AFETR). Payload-class satellites include a variety of spacecraft equipped with specific instruments for various scientific and technological missions. These include communications satellites like Starlink; space stations such as the ISS; scientific satellites like the Hubble; Earth observation satellites from companies like Planet Labs, Umbra, and HawkEye 360; GPS; miniature CubeSats for education and research; and military/defense satellites.

Loading next visibility...
Identifier
2221, 1966-053H
Orbit
GEO
Country
Flag of USUS
Related business
Manufacturer
Philco-Ford WDL
Mission
Non-operational spacecraft
Bus & Motor
IDCSP, Unknown motor
Mass
45 kg wet, 45 kg dry
Launch date (UTC)
1966-06-16 (60 years ago)
Launch vehicle
TITAN IIIC
Launch site
Air Force Eastern Test Range (AFETR)
Object type
Payload
Rocket body
Debris
Shape & HBR
Unknown
Radar Cross Section
Medium (>0.1 m² and <1 m²)

Expand to show TLE details & history
Last TLE update: 2 days ago

TLE from 2 days ago
0 OPS 9317 (IDSCS 7)
1 02221U 66053H   25348.35559394 -.00000063  00000-0  00000-0 0  9992
2 02221   8.0771  48.7314 0082318 171.1990 188.8463  1.06869761 49059
Epoch: 2025-12-14T08:32Z
TLE epoch observation values (Epoch: 2025-12-14T08:32:03.316Z)
Latitude
-0°
Longitude
-162.65124°
Altitude
34,361.57 km
Speed
3.115 km/s
True Right ascension
03h 14m 31s
True Declination
0° 00' 00"
Sunlit
Object was in daylight at epoch
Visualization orbit readout
Latitude
Unknown
Longitude
Unknown
Altitude
Unknown
Speed
Unknown
Apparent Right ascension
Unknown
Apparent Declination
Unknown
Sunlit
N/A
Visualization observer readout
Local Sidereal Time
15:08:35
Azimuth
Unknown
Elevation
Unknown
Doppler factor
Unknown
Orbital elements
Apogee altitude
34,366.518 km
Perigee altitude
33,701.191 km
Semi-major axis
40,411.991 km
Eccentricity
0.00823
Inclination
8.0771°
RAAN
48.7314°
Arg. of periapsis
171.199°
True anomaly
188.7027°
Mean anomaly
188.8463°
Eccentric anomaly
188.77435°
Mean motion
0.26716 °/min
Orbital period
1,347.49 mins
BSTAR
0
Loading maneuver chart data...
Computing Atmospheric mass density...
Loading historical data...
Loading historical data...
Loading historical data...
Loading historical data...
Loading historical data...
Loading historical data...
Loading historical data...

Documentation

Showing up to 5 results
|